Flag for Germany Weather past 2 weeks in Emmendingen, Baden-Württemberg, Germany

Now
64 °F

Partly sunny.


Feels Like: 64 °F
Forecast: 52 / 73 °F
Wind: 3 mph from North

Location: Lahr - CAN-AFB

Current Time: Sep 1, 2015 at 10:33:34 PM

Latest Report: Sep 1, 2015 at 7:50 PM


Visibility: N/A

Pressure: 30.04 "Hg

Humidity: 83%

Dew point: 59 °F

Location of EmmendingenLocation

Historic Weather in Emmendingen — Graph

°F

Emmendingen temperature yesterday

Maximum temperature yesterday: 95 °F (at 3:20 PM)
Minimum temperature yesterday: 72 °F (at 7:50 AM)
Average temperature yesterday: 87 °F

Past Weeks' High & Low Weather Summary

 TemperatureHumidityPressure
High95 °F (Aug 30, 4:50 PM)100% (Aug 24, 9:56 AM)30.27 "Hg (Aug 24, 9:56 AM)
Low50 °F (Aug 21, 6:50 AM)21% (Aug 31, 5:20 PM)29.68 "Hg (Aug 24, 7:50 AM)
Average73 °F52%30.01 "Hg
* Reported Aug 17 7:20 PM — Sep 1 7:50 PM, Emmendingen, Weather by CustomWeather, © 2015

Note: Actual official high and low records may vary slightly from our data, if they occured in-between our weather recording intervals... More about our weather records

Advertising

Emmendingen weather history for previous 24 hours

 ConditionsComfort  
Time TempWeatherWind HumidityBarometerVisibility
7:50 PM
Tue, Sep 1
64 °FPartly sunny.3 mph83%30.04 "HgN/A
7:20 PM64 °FScattered showers. Scattered clouds.9 mph83%30.01 "HgN/A
6:50 PM64 °FSprinkles. Scattered clouds.12 mph94%30.01 "HgN/A
6:20 PM66 °FPartly sunny.3 mph88%29.98 "HgN/A
5:50 PM66 °FLight rain. Scattered clouds.2 mph88%29.98 "HgN/A
5:20 PM64 °FLight rain. Broken clouds.3 mph94%29.98 "HgN/A
4:50 PM64 °FLight rain. Partly sunny.3 mph94%29.98 "Hg4 mi
4:20 PM64 °FPartly sunny.5 mph88%29.95 "HgN/A
3:50 PM64 °FLight rain. Partly sunny.3 mph88%29.95 "HgN/A
3:20 PM64 °FRain showers. Partly sunny.12 mph94%29.92 "Hg4 mi
2:50 PM66 °FRain showers. Partly sunny.18 mph88%29.92 "Hg4 mi
2:20 PM75 °FSprinkles. Partly sunny.18 mph54%29.86 "HgN/A
1:50 PM81 °FSunny.18 mph45%29.86 "Hg10 mi
1:20 PM81 °FSunny.17 mph42%29.86 "Hg10 mi
12:50 PM79 °FSunny.17 mph45%29.86 "Hg10 mi
11:50 AM79 °FSunny.20 mph51%29.86 "Hg10 mi
11:20 AM77 °FSunny.21 mph51%29.86 "Hg10 mi
10:50 AM77 °FSunny.20 mph47%29.83 "Hg10 mi
9:50 AM77 °FSunny.14 mph44%29.80 "Hg10 mi
9:20 AM73 °FPassing clouds.5 mph53%29.80 "HgN/A
8:50 AM72 °FSunny.6 mph61%29.80 "Hg10 mi
8:20 AM73 °FSunny.8 mph53%29.80 "Hg10 mi
7:50 AM75 °FSunny.8 mph44%29.80 "Hg10 mi
Weather by CustomWeather, © 2015

See weather overviewHow to use our weather pages